Location: STAR School
(35.3054°N, 111.2976°W)
Time: 13:20:27
(UTC-07:00)

OTV 5 (USA 277) - Visible Passes

Search period start: 18 October 2018 00:00
Search period end: 28 October 2018 00:00
Orbit: 387 x 394 km, 54.5° (Epoch: 08 September)

Date Brightness Start Highest point End Pass type
(mag) Time Alt. Az. Time Alt. Az. Time Alt. Az.
18 Oct ? 04:25:54 21° E 04:25:54 21° E 04:27:29 10° ESE visible
18 Oct ? 05:58:21 11° W 06:00:26 18° SW 06:02:41 10° S visible
19 Oct ? 05:04:57 37° S 05:04:57 37° S 05:07:15 10° SSE visible
21 Oct ? 19:42:31 10° SW 19:43:16 16° SW 19:43:16 16° SW visible
22 Oct ? 18:46:32 10° SSW 18:49:22 31° SE 18:49:46 30° ESE visible
23 Oct ? 19:25:46 10° WSW 19:28:34 39° NW 19:28:34 39° NW visible
24 Oct ? 18:29:11 10° SW 18:32:20 75° SE 18:34:47 16° NE visible
25 Oct ? 19:09:26 10° W 19:11:56 21° NW 19:13:17 16° N visible
26 Oct ? 18:12:18 10° WSW 18:15:22 47° NW 18:18:28 10° NNE visible
27 Oct ? 18:53:44 10° WNW 18:55:10 12° NNW 18:56:37 10° N visible
